{"data":{"norad_id":68513,"epoch":"2026-09-19T14:30:55.387872Z","epoch_age_seconds":124910,"freshness":"FRESH","line1":"1 68513U 26068F   26262.60480773  .00017223  00000+0  51964-3 0  9990","line2":"2 68513  53.1580 303.6247 0001126  90.4721 269.6411 15.34403521 26707","mean_motion":15.34403521,"eccentricity":0.0001126,"inclination_deg":53.158,"raan_deg":303.6247,"arg_perigee_deg":90.4721,"mean_anomaly_deg":269.6411,"bstar":0.00051964,"rev_number":2670,"period_min":93.847542728625,"perigee_km":461.92249764043,"apogee_km":463.46305250577,"semimajor_km":6840.8297750731,"source":"CELESTRAK","updated_at":"2026-09-20T09:00:43.902031Z"}}